カタログに戻る

LEMUR-2-VUKASIN

運用中科学SSO
NORAD 66785·PAYLOAD·🇺🇸 United States

打ち上げ Nov 28, 2025 から Vandenberg Space Force Base

Loading…

次のパス (今後24時間)

TLE

最新Source: Space-Track

元期: Sep 14, 2026, 15:28 UTC

1 66785U 25276DZ  26257.64463795  .00004183  00000-0  33218-3 0  9996
2 66785  97.5038 325.6439 0005888 135.4015 224.7684 15.00988069 43563

AllMySatでLEMUR-2-VUKASINをリアルタイム追跡

Download on the App Store